Fryeburg, ME

2:51 PM EDT on September 24, 2017 (GMT -0400)
Eastern Slopes Regional

Weather History for KIZG - February, 2012

Change the Weather History Date:

Sunday, February 19, 2012

  Actual Average Record
Temperature  
Mean Temperature 26 °F -  
Max Temperature 36 °F 32 °F 57 °F (1997)
Min Temperature 15 °F 8 °F -5 °F (2005)
Degree Days  
Heating Degree Days 38    
Moisture  
Dew Point 14 °F    
Average Humidity 54    
Maximum Humidity 84    
Minimum Humidity 39    
Precipitation  
Precipitation 0.00 in - - ()
Sea Level Pressure  
Sea Level Pressure 30.01 in    
Wind  
Wind Speed 6 mph (WNW)    
Max Wind Speed 15 mph    
Max Gust Speed 23 mph    
Visibility 10 miles    
Events      
Averages and records for this station are not official NWS values.
T = Trace of Precipitation, MM = Missing Value Source: NWS Daily Summary

Daily Weather History Graph

Daily Weather History Graph

Search for Another Location

Airport or City:

Trip Planner

Search our weather history database for the weather conditions in past years. The results will help you decide how hot, cold, wet, or windy it might be!

Date:

Astronomy

Feb. 19, 2012 Rise Set
Actual Time 6:37 AM EST 5:18 PM EST
Civil Twilight 6:08 AM EST 5:47 PM EST
Nautical Twilight 5:34 AM EST 6:21 PM EST
Astronomical Twilight 5:01 AM EST 6:54 PM EST
Moon 5:00 AM EST (2/19) 3:13 PM EST (2/19)
Length of Visible Light 11h 39m
Length of Day
10h 40m
Waning Crescent, 5% of the Moon is Illuminated
Feb 19
Waning Crescent
Feb 21
New
Feb 29
First Quarter
Mar 8
Full
Mar 14
Last Quarter

Hourly Weather History & Observations

Time (EST) Temp. Windchill Dew Point Humidity Pressure Visibility Wind Dir Wind Speed Gust Speed Precip Events Conditions
12:54 AM 28.0 °F 20.8 °F 15.1 °F 58% 29.94 in 10.0 mi WNW 6.9 mph - N/A   Clear
1:54 AM 30.9 °F 23.5 °F 15.1 °F 52% 29.97 in 10.0 mi WNW 8.1 mph 16.1 mph N/A   Clear
2:54 AM 30.9 °F 25.2 °F 16.0 °F 54% 29.97 in 10.0 mi Variable 5.8 mph - N/A   Clear
3:54 AM 28.0 °F - 16.0 °F 61% 29.98 in 10.0 mi Calm Calm - N/A   Clear
4:54 AM 28.0 °F 20.0 °F 15.1 °F 58% 30.00 in 10.0 mi WNW 8.1 mph - N/A   Clear
5:54 AM 27.0 °F - 15.1 °F 61% 30.00 in 10.0 mi Calm Calm - N/A   Clear
8:54 AM 30.9 °F 25.2 °F 15.1 °F 52% 30.04 in 10.0 mi West 5.8 mph - N/A   Clear
9:54 AM 32.0 °F 25.6 °F 14.0 °F 48% 30.04 in 10.0 mi West 6.9 mph - N/A   Clear
10:54 AM 33.1 °F 24.4 °F 14.0 °F 46% 30.04 in 10.0 mi WNW 11.5 mph 17.3 mph N/A   Clear
11:54 AM 34.0 °F 27.2 °F 14.0 °F 44% 30.02 in 10.0 mi West 8.1 mph 18.4 mph N/A   Clear
12:54 PM 35.1 °F 25.5 °F 12.0 °F 39% 30.01 in 10.0 mi WNW 15.0 mph 23.0 mph N/A   Clear
1:54 PM 36.0 °F 29.0 °F 12.9 °F 39% 30.00 in 10.0 mi WNW 9.2 mph 18.4 mph N/A   Clear
2:54 PM 35.1 °F 26.4 °F 14.0 °F 42% 30.00 in 10.0 mi WNW 12.7 mph 19.6 mph N/A   Clear
3:54 PM 34.0 °F 25.5 °F 12.9 °F 42% 30.00 in 10.0 mi WNW 11.5 mph - N/A   Clear
4:54 PM 32.0 °F 27.5 °F 12.9 °F 45% 29.99 in 10.0 mi West 4.6 mph - N/A   Clear
5:54 PM 30.0 °F 24.1 °F 12.0 °F 47% 30.01 in 10.0 mi West 5.8 mph - N/A   Clear
7:54 PM 27.0 °F - 12.0 °F 53% 30.04 in 10.0 mi Calm Calm - N/A   Clear
8:54 PM 23.0 °F - 12.0 °F 63% 30.02 in 10.0 mi Calm Calm - N/A   Clear
9:54 PM 19.0 °F - 12.0 °F 74% 30.03 in 10.0 mi Calm Calm - N/A   Clear
10:54 PM 17.1 °F - 10.9 °F 77% 30.02 in 10.0 mi Calm Calm - N/A   Clear
11:54 PM 15.1 °F - 10.9 °F 84% 30.02 in 10.0 mi Calm Calm - N/A   Clear